www.pogodaiklimat.ru

Погода и климат >> Архив погоды >> Германия >> Leuchtturm Kiel


ПОГОДА в Leuchtturm Kiel

  • Прогноз погоды в Leuchtturm Kiel
  • Монитор погоды в Leuchtturm Kiel
  • Климат города

АРХИВ ПОГОДЫ в Leuchtturm Kiel

Время (UTC), дата Ветер
(напр.,м/с)
 
Видим.   Явления Облачность Т
(С)
Тd
(С)
f
(%)
Тe
(С)
Тes
(С)
Комфортность P
(гПа)
Po
(гПа)
Тmin
(С)
Tmax
(С)
R
(мм)
R24
(мм)
S
(см)
19 20.06 СЗ 9 н/о н/о +16.7 +9.6 63 +15 +15 1018.8 1015.7
20 20.06 СЗ 10 н/о н/о +15.8 +9.2 65 +14 +14 1019.1 1016.0
21 20.06 СЗ 10 н/о н/о +14.8 +8.0 64 +12 +12 1019.5 1016.3
23 20.06 СЗ 8 н/о н/о +13.4 +9.1 75 +11 +11 1019.3 1016.2
22 20.06 СЗ 8 н/о н/о +14.0 +8.6 70 +12 +12 1019.4 1016.3
00 21.06 СЗ 8 н/о н/о +13.1 +9.3 78 +10 +10 1019.4 1016.3
01 21.06 СЗ 8 н/о н/о +12.9 +9.4 79 +10 +10 1019.4 1016.2
02 21.06 СЗ 8 н/о н/о +12.7 +9.1 79 +10 +10 1019.5 1016.4
03 21.06 СЗ 8 н/о н/о +12.6 +8.9 78 +10 +10 1019.3 1016.1
05 21.06 СЗ 7 н/о н/о +12.8 +8.5 75 +10 +10 1019.2 1016.1
04 21.06 СЗ 7 н/о н/о +12.8 +9.2 79 +10 +10 1019.4 1016.2
06 21.06 СЗ 7 н/о н/о +13.1 +8.2 72 +11 +11 1019.5 1016.4 +12.4 +18.0
07 21.06 СЗ 6 н/о н/о +14.4 +7.4 63 +13 +13 1019.3 1016.2
08 21.06 СЗ 6 н/о н/о +14.4 +7.6 64 +13 +13 1019.6 1016.5
09 21.06 СЗ 5 н/о н/о +14.9 +7.8 62 +14 +14 1019.6 1016.4
11 21.06 З 4 н/о н/о +15.9 +7.8 59 +15 +15 1019.3 1016.2
10 21.06 З 4 н/о н/о +15.0 +7.7 62 +14 +14 1019.6 1016.5
12 21.06 З 4 н/о н/о +16.5 +7.9 57 +16 +16 1018.9 1015.8
13 21.06 С 3 н/о н/о +16.1 +8.8 62 +16 +16 1018.4 1015.3
14 21.06 СВ 3 н/о н/о +16.6 +9.7 64 +16 +16 1017.9 1014.8
15 21.06 С 3 н/о н/о +16.4 +9.4 63 +16 +16 1017.4 1014.3
17 21.06 СЗ 4 н/о н/о +17.2 +10.5 65 +17 +17 1016.9 1013.8
16 21.06 С 3 н/о н/о +16.9 +9.6 62 +17 +17 1017.1 1014.0
18 21.06 СЗ 6 н/о н/о +16.8 +9.3 61 +16 +16 1016.6 1013.5 +12.7 +18.1
19 21.06 З 7 н/о н/о +16.4 +9.1 62 +15 +15 1016.7 1013.6
20 21.06 СЗ 4 н/о н/о +15.7 +9.1 65 +15 +15 1015.9 1012.8
21 21.06 СЗ 3 н/о н/о +15.2 +9.5 69 +15 +15 1016.0 1012.8
23 21.06 СЗ 2 н/о н/о +14.9 +9.7 71 +15 +15 1015.8 1012.7
22 21.06 СЗ 2 н/о н/о +15.0 +9.8 71 +15 +15 1015.8 1012.7
00 22.06 З 1 н/о н/о +14.8 +9.8 72 +15 +15 1015.3 1012.2
01 22.06 З 1 н/о н/о +14.7 +9.9 73 +15 +15 1014.8 1011.7
02 22.06 СЗ 1 н/о н/о +14.5 +9.9 74 +15 +15 1014.8 1011.7
03 22.06 ЮВ 1 н/о н/о +14.8 +10.3 74 +15 +15 1014.1 1011.0
05 22.06 ЮВ 4 н/о н/о +15.0 +10.9 76 +14 +14 1012.8 1009.7
04 22.06 Ю 3 н/о н/о +15.0 +10.1 72 +14 +14 1013.6 1010.5
06 22.06 ЮВ 4 н/о н/о +15.0 +11.9 82 +14 +14 1012.6 1009.5 +14.3 +17.7
07 22.06 ЮВ 4 н/о н/о +15.0 +12.5 85 +14 +14 1011.5 1008.4
08 22.06 ЮВ 1 н/о н/о +15.6 +11.9 79 +16 +16 1012.1 1009.0
09 22.06 С 3 н/о н/о +13.8 +12.2 90 +13 +13 1012.9 1009.8
11 22.06 Ю 14
{19}
н/о н/о +15.6 +14.0 90 +13 +13 1006.9 1003.9
10 22.06 ЮЗ 10 н/о н/о +14.1 +13.2 94 +11 +11 1013.1 1010.0
12 22.06 Ю 10
{19}
н/о н/о +18.3 +14.9 81 +18 +18 1007.2 1004.2
13 22.06 Ю 13
{15}
н/о н/о +20.9 +15.1 69 +23 +23 комфорт 1006.8 1003.8
14 22.06 ЮВ 2
{15}
н/о н/о +21.0 +15.4 70 +25 +25 комфорт 1007.2 1004.2
15 22.06 В 7
{15}
н/о н/о +17.6 +15.8 89 +17 +17 1006.2 1003.1
16 22.06 В 7 н/о н/о +18.3 +15.8 85 +18 +18 1005.8 1002.8
18 22.06 Ю 7
{15}
н/о н/о +22.2 +17.9 77 +27 +27 душно 1005.9 1002.9 +13.8 +23.0
19 22.06 Ю 5 н/о н/о +21.7 +17.6 78 +26 +26 душно 1004.1 1001.1
20 22.06 З 5 н/о н/о +21.2 +17.0 77 +25 +25 комфорт 1003.5 1000.5
21 22.06 З 6 н/о н/о +20.5 +15.7 74 +23 +23 комфорт 1003.7 1000.7
22 22.06 ЮЗ 7 н/о н/о +19.6 +15.8 79 +21 +21 комфорт 1003.7 1000.7
23 22.06 ЮЗ 9
{13}
н/о н/о +18.6 +16.3 86 +19 +19 1004.3 1001.3
00 23.06 З 11
{16}
н/о н/о +17.8 +15.8 88 +16 +16 1004.0 1001.0
01 23.06 З 11
{17}
н/о н/о +17.0 +15.5 91 +15 +15 1003.9 1000.8
02 23.06 З 8
{13}
н/о н/о +16.7 +15.5 93 +15 +15 1004.0 1000.9
03 23.06 З 10
{17}
н/о н/о +16.5 +15.6 94 +15 +15 1004.1 1001.0
04 23.06 З 11
{13}
н/о н/о +16.7 +15.6 93 +15 +15 1004.6 1001.5
05 23.06 З 10
{14}
н/о н/о +16.4 +15.6 95 +15 +15 1005.3 1002.2
07 23.06 З 11
{14}
н/о н/о +16.6 +15.5 93 +15 +15 1006.3 1003.2
08 23.06 З 12
{14}
н/о н/о +16.6 +15.5 93 +15 +15 1006.9 1003.8
09 23.06 З 11
{14}
н/о н/о +16.7 +15.6 93 +15 +15 1007.7 1004.6
10 23.06 З 14
{16}
н/о н/о +16.5 +15.5 94 +14 +14 1008.2 1005.1
11 23.06 З 15
{18}
н/о н/о +16.2 +15.1 93 +14 +14 1009.0 1006.0
12 23.06 З 15
{19}
н/о н/о +16.1 +14.4 90 +13 +13 1009.5 1006.5
13 23.06 З 12
{17}
н/о н/о +16.8 +13.9 83 +15 +15 1010.1 1007.0
14 23.06 З 12
{14}
н/о н/о +17.7 +12.9 73 +16 +16 1010.2 1007.2
15 23.06 З 11
{19}
н/о н/о +18.0 +13.3 74 +17 +17 1010.7 1007.7
16 23.06 З 13
{15}
н/о н/о +17.1 +10.4 65 +15 +15 1010.9 1007.9
18 23.06 З 11
{19}
н/о н/о +16.3 +12.9 80 +14 +14 1011.5 1008.4 +15.7 +18.2
20 23.06 ЮЗ 9 н/о н/о +16.0 +12.7 81 +14 +14 1011.6 1008.5
19 23.06 З 10
{13}
н/о н/о +16.1 +12.9 81 +14 +14 1011.5 1008.4
21 23.06 ЮЗ 8
{14}
н/о н/о +15.8 +13.1 84 +14 +14 1011.5 1008.4
22 23.06 З 10 н/о н/о +15.7 +12.6 82 +14 +14 1011.3 1008.2
23 23.06 ЮЗ 10 н/о н/о +15.8 +13.2 85 +14 +14 1011.0 1007.9
00 24.06 ЮЗ 9
{14}
н/о н/о +15.7 +13.4 86 +14 +14 1010.6 1007.5
02 24.06 ЮЗ 9 н/о н/о +15.6 +14.7 94 +14 +14 1009.7 1006.6
01 24.06 ЮЗ 9 н/о н/о +15.4 +14.3 93 +13 +13 1010.1 1007.0
03 24.06 ЮЗ 8 н/о н/о +15.7 +15.0 96 +14 +14 1009.1 1006.0
04 24.06 ЮЗ 9 н/о н/о +16.2 +14.7 91 +14 +14 1008.8 1005.8
05 24.06 ЮЗ 7 н/о н/о +15.9 +15.0 94 +14 +14 1008.5 1005.4
09 24.06 ЮЗ 10 н/о н/о +17.4 +14.9 85 +16 +16 1007.4 1004.4
11 24.06 ЮЗ 10
{13}
н/о н/о +17.1 +15.0 87 +16 +16 1007.6 1004.5
10 24.06 ЮЗ 9
{14}
н/о н/о +17.4 +15.2 87 +16 +16 1007.5 1004.5
12 24.06 ЮЗ 10
{14}
н/о н/о +17.5 +14.6 83 +16 +16 1007.3 1004.2
13 24.06 ЮЗ 11
{17}
н/о н/о +17.9 +14.6 81 +17 +17 1007.2 1004.1
14 24.06 З 14
{18}
н/о н/о +17.2 +14.7 85 +15 +15 1007.3 1004.3
15 24.06 З 14
{18}
н/о н/о +16.4 +12.5 78 +14 +14 1008.1 1005.0
17 24.06 З 16
{18}
н/о н/о +16.4 +10.3 67 +14 +14 1008.6 1005.5
16 24.06 З 15
{18}
н/о н/о +16.7 +11.1 70 +14 +14 1008.2 1005.1
18 24.06 З 13
{18}
н/о н/о +15.7 +10.0 69 +13 +13 1009.1 1006.0 +15.7 +18.0
19 24.06 З 10
{15}
н/о н/о +15.5 +9.5 67 +13 +13 1009.2 1006.1
20 24.06 ЮЗ 9 н/о н/о +15.2 +9.6 69 +13 +13 1009.3 1006.2
21 24.06 ЮЗ 8
{18}
н/о н/о +14.9 +10.4 74 +13 +13 1009.3 1006.2
23 24.06 ЮЗ 8 н/о н/о +14.4 +11.8 84 +12 +12 1008.7 1005.6
22 24.06 ЮЗ 6 н/о н/о +14.8 +11.2 79 +13 +13 1009.1 1006.0
00 25.06 ЮЗ 8
{18}
н/о н/о +14.4 +12.1 86 +12 +12 1008.1 1005.0
01 25.06 Ю 8 н/о н/о +14.3 +12.1 87 +12 +12 1007.2 1004.1
02 25.06 Ю 8 н/о н/о +14.4 +12.8 90 +12 +12 1006.6 1003.5
03 25.06 Ю 7 н/о н/о +14.3 +13.2 93 +12 +12 1005.8 1002.8
05 25.06 ЮЗ 7 н/о н/о +15.1 +14.1 94 +13 +13 1005.1 1002.0
04 25.06 Ю 8 н/о н/о +14.8 +13.8 94 +13 +13 1005.1 1002.0
06 25.06 ЮЗ 7 н/о н/о +15.5 +14.4 93 +14 +14 1004.9 1001.9 +14.0 +16.4
07 25.06 ЮЗ 7 н/о н/о +16.2 +13.4 83 +15 +15 1004.6 1001.6
08 25.06 ЮЗ 10 н/о н/о +16.6 +12.8 78 +15 +15 1004.7 1001.6
09 25.06 З 12
{15}
н/о н/о +16.7 +11.6 72 +15 +15 1004.9 1001.8
11 25.06 З 12
{15}
н/о н/о +16.3 +10.3 68 +14 +14 1005.9 1002.9
10 25.06 З 10
{14}
н/о н/о +16.6 +10.4 67 +15 +15 1005.5 1002.5
12 25.06 З 13
{15}
н/о н/о +16.0 +10.1 68 +14 +14 1006.1 1003.1
13 25.06 З 11
{16}
н/о н/о +16.0 +9.7 66 +14 +14 1006.5 1003.4
14 25.06 З 12
{15}
н/о н/о +16.0 +9.6 66 +14 +14 1006.8 1003.8
15 25.06 З 14
{16}
н/о н/о +16.3 +9.4 64 +14 +14 1006.8 1003.7
17 25.06 З 14
{17}
н/о н/о +15.6 +9.0 65 +13 +13 1007.2 1004.1
16 25.06 З 13
{18}
н/о н/о +15.9 +8.6 62 +14 +14 1006.8 1003.8
18 25.06 З 14
{18}
н/о н/о +15.1 +8.9 66 +12 +12 1007.2 1004.1 +15.0 +16.9
19 25.06 З 10
{15}
н/о н/о +15.1 +8.9 66 +13 +13 1007.2 1004.1
20 25.06 З 10
{15}
н/о н/о +14.9 +9.0 68 +13 +13 1007.2 1004.1
21 25.06 ЮЗ 9
{18}
н/о н/о +14.5 +8.7 68 +12 +12 1007.4 1004.3
23 25.06 ЮЗ 9 н/о н/о +13.5 +9.9 79 +11 +11 1007.4 1004.3
22 25.06 ЮЗ 8 н/о н/о +13.9 +10.0 77 +11 +11 1007.5 1004.4
00 26.06 З 9
{18}
н/о н/о +13.4 +9.6 78 +11 +11 1007.1 1004.0
01 26.06 ЮЗ 8 н/о н/о +12.9 +9.5 80 +10 +10 1007.2 1004.1
02 26.06 ЮЗ 8 н/о н/о +12.7 +9.6 81 +10 +10 1007.3 1004.2
03 26.06 ЮЗ 8 н/о н/о +12.3 +9.3 82 +9 +9 1007.2 1004.1
05 26.06 ЮЗ 8 н/о н/о +12.8 +9.3 79 +10 +10 1007.4 1004.3
04 26.06 ЮЗ 9 н/о н/о +12.5 +9.1 80 +9 +9 1007.2 1004.1
06 26.06 З 9 н/о н/о +13.8 +9.7 76 +11 +11 1007.6 1004.5 +12.2 +15.6
07 26.06 З 10
{13}
н/о н/о +14.5 +8.2 66 +12 +12 1008.2 1005.1
08 26.06 З 10
{13}
н/о н/о +14.9 +8.5 66 +13 +13 1008.4 1005.3
09 26.06 З 10
{13}
н/о н/о +15.4 +7.5 59 +13 +13 1008.9 1005.8
11 26.06 З 10
{14}
н/о н/о +15.8 +8.5 62 +14 +14 1009.8 1006.7
10 26.06 З 10
{13}
н/о н/о +15.6 +7.2 57 +14 +14 1009.4 1006.3
12 26.06 З 10
{14}
н/о н/о +15.8 +8.8 63 +14 +14 1010.1 1007.0
13 26.06 З 11
{14}
н/о н/о +15.5 +9.1 66 +13 +13 1010.5 1007.4
14 26.06 З 9 н/о н/о +15.9 +9.0 64 +14 +14 1010.8 1007.7
15 26.06 З 10
{14}
н/о н/о +16.1 +8.2 59 +14 +14 1011.1 1008.1
17 26.06 З 10 н/о н/о +15.5 +8.3 62 +13 +13 1011.6 1008.5
16 26.06 З 11
{15}
н/о н/о +15.5 +8.8 64 +13 +13 1011.4 1008.3
18 26.06 З 10
{15}
н/о н/о +15.3 +7.8 61 +13 +13 1011.9 1008.8 +12.7 +16.5
19 26.06 З 9 н/о н/о +14.9 +7.9 63 +13 +13 1012.0 1008.9
20 26.06 З 9 н/о н/о +14.6 +9.0 69 +12 +12 1012.4 1009.3
21 26.06 З 9 н/о н/о +14.0 +8.7 70 +11 +11 1012.3 1009.2
23 26.06 З 7 н/о н/о +13.2 +9.0 76 +11 +11 1013.0 1009.9
22 26.06 З 9 н/о н/о +13.6 +8.9 73 +11 +11 1012.5 1009.4
00 27.06 З 7 н/о н/о +13.2 +8.6 74 +11 +11 1013.2 1010.0
01 27.06 З 5 н/о н/о +12.4 +9.6 83 +10 +10 1013.4 1010.3
02 27.06 З 5 н/о н/о +12.2 +9.4 83 +10 +10 1013.2 1010.1
03 27.06 З 6 н/о н/о +12.6 +8.9 78 +10 +10 1013.0 1009.8
05 27.06 СЗ 4 н/о н/о +12.6 +7.5 71 +11 +11 1013.2 1010.0
04 27.06 З 6 н/о н/о +12.6 +7.3 70 +10 +10 1012.8 1009.7
06 27.06 СЗ 3 н/о н/о +12.9 +6.6 66 +12 +12 1013.4 1010.3 +11.7 +15.6
07 27.06 З 3 н/о н/о +13.0 +5.8 62 +12 +12 1013.8 1010.6
08 27.06 З 2 н/о н/о +13.2 +5.5 60 +13 +13 1013.9 1010.7
09 27.06 З 3 н/о н/о +13.3 +5.0 57 +12 +12 1013.9 1010.8
11 27.06 С 1 н/о н/о +14.9 +5.5 53 +16 +16 1013.4 1010.3
10 27.06 СЗ 2 н/о н/о +16.0 +6.7 54 +16 +16 1013.7 1010.6
12 27.06 В 2 н/о н/о +14.1 +6.9 62 +14 +14 1013.1 1010.0
13 27.06 СВ 3 н/о н/о +14.7 +7.3 61 +14 +14 1012.7 1009.6
14 27.06 СВ 4 н/о н/о +14.4 +7.6 64 +13 +13 1012.4 1009.3
15 27.06 В 5 н/о н/о +14.3 +8.0 66 +13 +13 1011.8 1008.7
17 27.06 В 6 н/о н/о +14.9 +8.6 66 +13 +13 1010.7 1007.6
16 27.06 В 5 н/о н/о +14.7 +8.5 66 +13 +13 1011.2 1008.1
18 27.06 В 6 н/о н/о +15.0 +8.5 65 +13 +13 1010.4 1007.3 +12.5 +17.3
19 27.06 В 5 н/о н/о +15.4 +9.4 67 +14 +14 1010.1 1007.0

 

Местоположение метеостанции Leuchtturm Kiel (Германия): широта 54.50 долгота 10.28 высота над уровнем моря 21 м.

В архиве по умолчанию представлена погода в Leuchtturm Kiel за последнюю неделю. Архивные данные за месяц целиком и за предыдущие месяцы, начиная с января 2011 года, Вы можете получить, выбрав интересующий диапазон дат из раскрывающегося списка и нажав кнопку "Ввод!".

Внимание! Время в таблицах - всемирное. Для получения местного времени необходимо прибавить поправку, которая в Leuchtturm Kiel равна 1 ч.

Смотрите также архив погоды в соседних городах и на ближайших метеорологических станциях:

Погода в Kiel-Holtenau (Германия) (16 км)
Погода в Olpenitz (Германия) (25 км)
Погода в Doernick (Германия) (37 км)
Погода в Kegnaes (Дания) (43 км)
Погода в Schleswig (Германия) (47 км)
Погода в Schleswig Airport (Германия) (49 км)
Погода в Westermarkelsdorf (Германия) (51 км)
Погода в Hohn (Германия) (53 км)
Погода в Langoe (Дания) (58 км)
Погода в Taasinge (Дания) (61 км)

Пояснения к столбцам:

Ветер - указаны скорость ветра в м/с - средняя за 10 мин, порывы в срок и между сроками (в фигурных скобках) и направление, откуда дует ветер: С - северный, СВ - северо-восточный, В - восточный, ЮВ - юго-восточный, Ю - южный, ЮЗ - юго-западный, З - западный, СЗ - северо-западный.
Видимость - горизонтальная дальность видимости в метрах или километрах. При видимости от 1 до 10 км при отсутствии осадков обычно наблюдается дымка, при ухудшении видимости до 1 км и менее - туман. В сухую погоду видимость может ухудшаться дымом, пылью или мглою.
Явления - указаны атмосферные явления, наблюдавшиеся в срок или в последний час перед сроком; фигурными скобками обозначены явления, наблюдавшиеся между сроками (за 1-3 часа до срока); квадратными скобками обозначены град или гололедные отложения с указанием их диаметра в мм.
Облачность - указаны через наклонную черту общая и нижняя облачность в баллах и высота нижней границы облаков в метрах; квадратными скобками обозначены формы облаков: Ci - перистые, Cs - перисто-слоистые, Cc - перисто-кучевые, Ac - высококучевые, As - высокослоистые, Sc - слоисто-кучевые, Ns - слоисто-дождевые, Cu - кучевые, Cb - кучево-дождевые. Подробнее классификацию облаков см. в Атласе облаков (PDF).
T - Температура воздуха - температура, измеренная на высоте 2 м над землей.
Td - Температура точки росы - температура, при понижении до которой содержащийся в воздухе водяной пар достигнет насыщения.
f - Относительная влажность воздуха - влажноcть воздуха, измеренная на высоте 2 м над землей.
Te - Эффективная температура - температура, которую ощущает одетый по сезону человек в тени. Характеристика душности погоды. При расчете учитывается влияние влажности воздуха и скорости ветра на теплоощущения человека.
Tes - Эффективная температура на солнце - температура, которую ощущает человек, с поправкой на солнечный нагрев. Характеристика знойности погоды. Зависит от высоты солнца над горизонтом, облачности и скорости ветра. Ночью, в пасмурную погоду, а также при ветре 12 м/с и более поправка равна нулю.
P - Атмосферное давление - приведенное к уровню моря атмосферное давление.
Po - Атмосферное давление - измеренное на уровне метеостанции атмосферное давление.
Tmin - Минимальная температура - минимум температуры воздуха на высоте 2 м над землей.
Tmax - Максимальная температура - максимум температуры воздуха на высоте 2 м над землей.
R - Количество осадков - Количество выпавших осадков за период времени, мм. При наведении курсора мыши на число - период времени, за который выпало указанное количество осадков.
R24 - Количество осадков - Количество выпавших осадков за 24 часа, мм.
S - Снежный покров - Высота снежного покрова, см. При наведении курсора мыши на число - состояние снежного покрова и степень покрытия местности в баллах.